Weather observations for the past three days for
Chico Municipal Airport
Imperial (Metric)
Date Time (pdt) Wind (mph) Vis. (mi.) Weather Sky Cond. Temperature (ºF) Relative Humidity Wind Chill (°F) Heat Index (°F) Pressure Precipitation (in)
Air Dwpt 6 hour altimeter (in) sea level (mb) 1 hr 3 hr 6 hr
Max. Min.
18 12:54 W 7 10.00 Fair CLR 95 44.6 18% 91 29.94 0.0
18 12:00 S 3 10.00 Fair CLR 91.4 48.2 23% 88 29.95 0.0
18 10:56 SW 3 10.00 Fair CLR 86 48.2 27% 83 29.96 0.0
18 09:53 W 5 10.00 Fair CLR 82.4 44.6 26% 81 29.97 0.0
18 08:50 W 5 10.00 Fair CLR 77 48.2 36% 78 29.98 0.0
18 08:15 Calm 10.00 Fair CLR 75.2 44.6 34% 77 29.98 0.0
18 07:55 Calm 10.00 Fair CLR 73.4 46.4 38% 29.97 0.0
18 07:53 W 5 10.00 Fair CLR 73.4 46.4 38% 29.97 0.0
18 07:35 Calm 10.00 Fair CLR 71.6 44.6 38% 29.97 0.0
18 07:15 Calm 10.00 Fair CLR 71.6 44.6 38% 29.97 0.0
18 06:57 NW 5 10.00 Fair CLR 68 46.4 46% 29.96 0.0
18 06:55 Calm 10.00 Fair CLR 68 46.4 46% 29.96 0.0
18 06:35 NW 3 10.00 Fair CLR 68 44.6 43% 29.96 0.0
18 05:55 Calm 10.00 Fair CLR 66.2 48.2 52% 29.96 0.0
18 05:35 Calm 10.00 Fair CLR 69.8 44.6 40% 29.96 0.0
18 05:15 Calm 10.00 Fair CLR 69.8 44.6 40% 29.95 0.0
18 04:55 Calm 10.00 Fair CLR 71.6 42.8 36% 29.95 0.0
18 04:35 E 3 10.00 Fair CLR 69.8 44.6 40% 29.95 0.0
18 04:15 Calm 10.00 Fair CLR 71.6 41 33% 29.95 0.0
18 03:55 N 5 10.00 Fair CLR 71.6 41 33% 29.94 0.0
18 03:35 NW 5 10.00 Fair CLR 69.8 41 35% 29.94 0.0
18 03:15 NW 7 10.00 Fair CLR 73.4 39.2 29% 29.94 0.0
18 02:35 NE 5 10.00 Fair CLR 75.2 39.2 27% 77 29.94 0.0
18 02:15 E 6 10.00 Fair CLR 75.2 39.2 27% 77 29.94 0.0
18 01:55 NE 7 10.00 Fair CLR 77 39.2 26% 77 29.94 0.0
18 01:35 NE 7 10.00 Fair CLR 77 41 28% 78 29.95 0.0
18 01:15 E 3 10.00 Fair CLR 77 42.8 30% 78 29.95 0.0
18 00:55 NE 6 10.00 Fair CLR 77 42.8 30% 78 29.94 0.0
18 00:35 NE 6 10.00 Fair CLR 77 42.8 30% 78 29.94 0.0
18 00:15 NE 5 10.00 Fair CLR 77 44.6 32% 78 29.94 0.0
17 23:35 NE 3 10.00 Fair CLR 77 44.6 32% 78 29.94 0.0
17 23:15 E 3 10.00 Fair CLR 78.8 44.6 30% 79 29.93 0.0
17 22:55 NE 6 10.00 Fair CLR 80.6 44.6 28% 79 29.93 0.0
17 22:35 NE 8 10.00 Fair CLR 80.6 44.6 28% 79 29.93 0.0
17 22:15 NE 7 10.00 Fair CLR 80.6 44.6 28% 79 29.93 0.0
17 16:53 S 9 10.00 Fair CLR 91.4 41 17% 87 29.93 0.0
17 16:00 S 9 10.00 Fair CLR 89.6 42.8 20% 86 29.95 0.0
17 15:51 S 7 10.00 Fair CLR 89.6 42.8 20% 86 29.97 0.0
17 14:30 S 7 10.00 Fair CLR 89.6 39.2 17% 86 29.98 0.0
17 13:58 S 8 10.00 Fair CLR 86 44.6 24% 83 29.99 0.0
17 13:00 S 8 10.00 Fair CLR 84.2 50 31% 82 30.01 0.0
17 11:50 NW 5 10.00 Fair CLR 80.6 48.2 32% 80 30.02 0.0
17 10:58 S 5 10.00 Fair CLR 75.2 48.2 39% 77 30.02 0.0
17 09:58 Calm 10.00 Fair CLR 71.6 48.2 44% 30.03 0.0
17 08:57 Calm 10.00 Fair CLR 68 48.2 49% 30.03 0.0
17 08:15 Calm 10.00 Fair CLR 64.4 48.2 56% 30.03 0.0
17 07:55 SE 3 10.00 Fair CLR 64.4 48.2 56% 30.03 0.0
17 07:51 SE 5 10.00 Fair CLR 62.6 48.2 60% 30.03 0.0
17 07:35 SE 6 10.00 Fair CLR 62.6 48.2 60% 30.03 0.0
17 07:15 SE 5 10.00 Fair CLR 62.6 48.2 60% 30.03 0.0
17 06:55 SE 7 10.00 Fair CLR 62.6 48.2 60% 30.02 0.0
17 06:54 SE 8 10.00 Fair CLR 62.6 48.2 60% 30.02 0.0
17 06:35 SE 6 10.00 Fair CLR 62.6 48.2 60% 30.01 0.0
17 06:15 SE 5 10.00 Fair CLR 60.8 48.2 63% 30 0.0
17 05:55 SE 5 10.00 Fair CLR 62.6 46.4 56% 30 0.0
17 05:35 SE 6 10.00 Fair CLR 62.6 46.4 56% 29.99 0.0
17 05:15 SE 6 10.00 Fair CLR 62.6 46.4 56% 29.99 0.0
17 04:55 E 6 10.00 Fair CLR 62.6 46.4 56% 29.98 0.0
17 04:35 SE 5 10.00 Fair CLR 62.6 46.4 56% 29.98 0.0
17 04:15 SE 6 10.00 Fair CLR 64.4 46.4 52% 29.98 0.0
17 03:55 SE 7 10.00 Fair CLR 64.4 46.4 52% 29.98 0.0
17 03:35 SE 7 10.00 Fair CLR 64.4 46.4 52% 29.97 0.0
17 03:15 SE 7 10.00 Fair CLR 64.4 46.4 52% 29.97 0.0
17 02:55 SE 9 10.00 Fair CLR 66.2 46.4 49% 29.97 0.0
17 02:35 SE 10 10.00 Fair CLR 66.2 44.6 46% 29.96 0.0
17 02:15 S 12 10.00 Fair CLR 68 46.4 46% 29.96 0.0
17 01:55 S 9 10.00 Fair CLR 69.8 44.6 40% 29.95 0.0
17 01:35 SE 13 10.00 Fair CLR 71.6 44.6 38% 29.94 0.0
17 01:15 SE 14 10.00 Fair CLR 71.6 44.6 38% 29.94 0.0
17 00:55 SE 9 10.00 Fair CLR 71.6 46.4 41% 29.94 0.0
17 00:35 SE 12 10.00 Fair CLR 71.6 44.6 38% 29.94 0.0
17 00:15 SE 15 10.00 Fair CLR 73.4 44.6 36% 29.93 0.0
16 23:55 SE 15 10.00 Fair CLR 75.2 42.8 31% 77 29.93 0.0
16 23:35 SE 10 10.00 Fair CLR 75.2 41 29% 77 29.93 0.0
16 23:15 SE 15 10.00 Fair CLR 77 41 28% 78 29.91 0.0
16 22:55 SE 17 10.00 Fair CLR 78.8 39.2 24% 78 29.92 0.0
16 22:35 SE 18 G 23 10.00 Fair CLR 80.6 41 24% 79 29.91 0.0
16 22:15 SE 17 10.00 Fair CLR 80.6 41 24% 79 29.91 0.0
16 15:54 S 13 10.00 Fair CLR 91.4 48.2 23% 88 29.9 0.0
16 14:52 SE 10 10.00 Fair CLR 91.4 50 24% 88 29.92 0.0
16 13:53 SE 14 G 20 10.00 Fair CLR 89.6 51.8 27% 87 29.93 0.0
16 12:53 SE 7 10.00 Fair CLR 86 50 29% 84 29.94 0.0
16 11:50 SE 7 10.00 Fair CLR 84.2 50 31% 82 29.95 0.0
16 11:03 S 8 10.00 Fair CLR 80.6 51.8 37% 80 29.96 0.0
16 10:00 S 5 10.00 Fair CLR 77 51.8 42% 78 29.96 0.0
16 08:50 SE 10 10.00 Fair CLR 71.6 50 47% 29.97 0.0
16 08:15 SE 8 10.00 Fair CLR 71.6 50 47% 29.97 0.0
16 08:00 SE 10 10.00 Fair CLR 71.6 50 47% 29.97 0.0
16 07:55 SE 9 10.00 Fair CLR 71.6 50 47% 29.97 0.0
16 07:35 S 8 10.00 Fair CLR 71.6 50 47% 29.96 0.0
16 07:15 SE 6 10.00 Fair CLR 69.8 50 50% 29.96 0.0
16 06:55 SE 6 10.00 Fair CLR 69.8 50 50% 29.95 0.0
16 06:51 SE 6 10.00 Fair CLR 69.8 48.2 46% 29.95 0.0
16 06:35 SE 7 10.00 Fair CLR 69.8 48.2 46% 29.95 0.0
16 06:15 SE 7 10.00 Fair CLR 69.8 48.2 46% 29.94 0.0
16 05:55 SE 6 10.00 Fair CLR 69.8 50 50% 29.94 0.0
16 05:35 SE 8 10.00 Fair CLR 69.8 50 50% 29.93 0.0
16 05:15 SE 7 10.00 Fair CLR 69.8 50 50% 29.93 0.0
16 04:55 SE 8 10.00 Fair CLR 71.6 50 47% 29.93 0.0
16 04:35 SE 12 10.00 Fair CLR 71.6 50 47% 29.92 0.0
16 04:15 SE 8 10.00 Fair CLR 71.6 51.8 50% 29.92 0.0
16 03:55 SE 6 10.00 Fair CLR 73.4 53.6 50% 29.92 0.0
16 03:35 SE 7 10.00 Fair CLR 73.4 51.8 47% 29.92 0.0
16 03:15 SE 8 10.00 Fair CLR 73.4 51.8 47% 29.92 0.0
16 02:55 S 5 10.00 Fair CLR 75.2 53.6 47% 78 29.91 0.0
16 02:35 S 9 10.00 Fair CLR 77 51.8 42% 78 29.91 0.0
16 02:15 SE 7 10.00 Fair CLR 77 51.8 42% 78 29.9 0.0
16 01:55 SE 5 10.00 Fair CLR 78.8 50 37% 79 29.9 0.0
16 01:35 SE 8 10.00 Fair CLR 80.6 51.8 37% 80 29.9 0.0
16 01:15 SE 8 10.00 Fair CLR 80.6 53.6 39% 80 29.9 0.0
16 00:55 SE 7 10.00 Fair CLR 80.6 55.4 42% 81 29.9 0.0
16 00:35 SE 7 10.00 Fair CLR 80.6 57.2 45% 81 29.9 0.0
16 00:15 E 3 10.00 Fair CLR 82.4 57.2 42% 82 29.9 0.0
15 23:55 SE 7 10.00 Fair CLR 82.4 57.2 42% 82 29.89 0.0
15 23:35 Calm 10.00 Fair CLR 84.2 57.2 40% 83 29.89 0.0
15 23:15 Calm 10.00 Fair CLR 86 57.2 38% 85 29.89 0.0
15 22:55 Calm 10.00 Fair CLR 84.2 57.2 40% 83 29.9 0.0
15 22:35 S 5 10.00 Fair CLR 86 57.2 38% 85 29.9 0.0
15 22:15 E 7 10.00 Fair CLR 86 60.8 43% 86 29.9 0.0
15 15:53 SE 13 10.00 Fair CLR 95 53.6 25% 93 29.9 0.0
15 14:57 SE 9 10.00 Fair CLR 93.2 53.6 26% 91 29.93 0.0
15 13:57 SE 10 10.00 Fair CLR 91.4 55.4 30% 90 29.95 0.0
Date Time (pdt) Wind (mph) Vis. (mi.) Weather Sky Cond. Air Dwpt Max. Min. Relative Humidity Wind Chill (°F) Heat Index (°F) altimeter (in) sea level (mb) 1 hr 3 hr 6 hr
6 hour
Temperature (ºF) Pressure Precipitation (in)